| time (UTC) | temp C | wind direction | speed KPH | gust KPH | rain 1hr cm | rain 24hr cm | rain mn cm | humidity % | barometer mb |
| 20260831110803 | 0 | 278 | 3.2 | 4.8 | 0.00 | 0.23 | 0.00 | 98 | 1006.4 |
| 20260831110303 | 0 | 279 | 3.2 | 8.0 | 0.00 | 0.46 | 0.00 | 98 | 1006.5 |
| 20260831100803 | 0 | 276 | 3.2 | 4.8 | 0.00 | 0.66 | 0.00 | 98 | 1007.1 |
| 20260831100303 | 0 | 280 | 3.2 | 4.8 | 0.00 | 0.66 | 0.00 | 98 | 1007.2 |
| 20260831090303 | 0 | 272 | 4.8 | 8.0 | 0.00 | 1.27 | 0.00 | 98 | 1007.8 |
| 20260831080303 | 1 | 279 | 4.8 | 8.0 | 0.00 | 1.65 | 0.00 | 98 | 1008.3 |
| 20260831070812 | 2 | 154 | 4.8 | 8.0 | 0.00 | 2.03 | 0.00 | 98 | 1008.7 |
| 20260831070303 | 2 | 252 | 4.8 | 8.0 | 0.00 | 2.06 | 0.00 | 98 | 1008.8 |
| 20260831060803 | 4 | 268 | 4.8 | 4.8 | 0.00 | 2.18 | 1.65 | 96 | 1009.3 |
| 20260831060303 | 4 | 271 | 4.8 | 11.3 | 0.00 | 2.18 | 1.65 | 96 | 1009.3 |
| 20260831050802 | 7 | 149 | 4.8 | 9.7 | 0.00 | 2.18 | 1.65 | 92 | 1009.7 |
| 20260831050303 | 7 | 267 | 6.4 | 8.0 | 0.00 | 2.18 | 1.65 | 92 | 1009.8 |
| 20260831040802 | 9 | 25 | 4.8 | 8.0 | 0.00 | 2.18 | 1.65 | 86 | 1010.2 |
| 20260831030304 | 10 | 278 | 8.0 | 8.0 | 0.00 | 2.18 | 1.65 | 75 | 1010.2 |
| 20260831020803 | 11 | 33 | 1.6 | 3.2 | 0.00 | 2.21 | 1.65 | 70 | 1010.5 |
| 20260831010303 | 11 | 117 | 1.6 | 4.8 | 0.00 | 2.24 | 1.65 | 69 | 1010.7 |
| 20260831000802 | 11 | 87 | 1.6 | 8.0 | 0.00 | 2.24 | 1.65 | 76 | 1011.2 |
| 20260830220804 | 10 | 281 | 3.2 | 8.0 | 0.00 | 2.24 | 1.65 | 81 | 1012.1 |
| 20260830210804 | 9 | 35 | 4.8 | 9.7 | 0.00 | 2.24 | 1.65 | 86 | 1012.4 |
| 20260830210305 | 9 | 27 | 3.2 | 11.3 | 0.00 | 2.24 | 1.65 | 84 | 1012.5 |
| 20260830200805 | 8 | 355 | 3.2 | 4.8 | 0.00 | 2.24 | 1.65 | 93 | 1012.6 |
| 20260830190304 | 8 | 17 | 3.2 | 4.8 | 0.00 | 2.24 | 1.65 | 90 | 1012.8 |
| 20260830180804 | 7 | 229 | 3.2 | 3.2 | 0.00 | 2.24 | 1.65 | 92 | 1012.8 |
| 20260830170804 | 6 | 274 | 4.8 | 4.8 | 0.00 | 2.24 | 1.65 | 99 | 1012.9 |
| 20260830170304 | 6 | 275 | 4.8 | 9.7 | 0.00 | 2.24 | 1.65 | 99 | 1012.8 |
| 20260830160804 | 6 | 261 | 4.8 | 8.0 | 0.00 | 2.24 | 1.65 | 99 | 1012.6 |
| 20260830150804 | 5 | 139 | 3.2 | 8.0 | 0.00 | 2.24 | 1.65 | 99 | 1012.1 |
| 20260830150305 | 5 | 165 | 4.8 | 11.3 | 0.00 | 2.24 | 1.65 | 99 | 1012.1 |
| 20260830140804 | 6 | 281 | 8.0 | 9.7 | 0.03 | 2.24 | 1.65 | 98 | 1011.6 |
| 20260830140304 | 6 | 242 | 4.8 | 9.7 | 0.03 | 2.24 | 1.65 | 98 | 1011.5 |
| 20260830130804 | 6 | 274 | 8.0 | 8.0 | 0.03 | 2.21 | 1.63 | 98 | 1011.1 |
| 20260830130304 | 6 | 276 | 4.8 | 8.0 | 0.03 | 2.21 | 1.63 | 98 | 1011.1 |
| 20260830120804 | 6 | 271 | 4.8 | 4.8 | 0.05 | 2.18 | 1.60 | 98 | 1010.5 |